Retour au catalogue

STARLINK-32919

ActifCommunicationsVLEO
NORAD 63150·PAYLOAD·🇺🇸 United States

Lancé Mar 3, 2025 depuis Cape Canaveral Space Force Station

Loading…

Prochains Passages (prochaines 24 heures)

TLE

FraisSource: CelesTrak SupGP

Époque: Sep 14, 2026, 21:12 UTC

1 63150C 25043U   26257.88381944  .00054935  00000+0  19902-2 0  2571
2 63150  43.0021  27.7520 0001497 273.8709 215.7055 15.27543459    18

Suivez STARLINK-32919 en temps réel avec AllMySat

Download on the App Store